Lawrence, KS

7:43 AM CDT on October 22, 2017 (GMT -0500)
Lawrence Municipal

Weather History for KLWC - June, 2013

Change the Weather History Date:

Thursday, June 27, 2013

  Actual Average Record
Temperature  
Mean Temperature 78 °F 76 °F  
Max Temperature 87 °F 87 °F 103 °F (2012)
Min Temperature 68 °F 66 °F 53 °F (2017)
Degree Days  
Heating Degree Days 0 0  
Month to date heating degree days 13 6  
Since 1 June heating degree days 13 6  
Since 1 July heating degree days 5283 5090  
Cooling Degree Days 13 12  
Month to date cooling degree days 285 240  
Year to date cooling degree days 412 359  
Since 1 June cooling degree days 285 240  
Growing Degree Days 28 (Base 50)    
Moisture  
Dew Point 68 °F    
Average Humidity 76    
Maximum Humidity 90    
Minimum Humidity 61    
Precipitation  
Precipitation 0.32 in 0.16 in 1.20 in (1999)
Month to date precipitation 1.35 5.01  
Year to date precipitation 15.66 18.90  
Sea Level Pressure  
Sea Level Pressure 29.91 in    
Wind  
Wind Speed 4 mph (NE)    
Max Wind Speed 12 mph    
Max Gust Speed 31 mph    
Visibility 9 miles    
Events Rain , Thunderstorm    
T = Trace of Precipitation, MM = Missing Value Source: NWS Daily Summary

Daily Weather History Graph

Daily Weather History Graph

Search for Another Location

Airport or City:

Trip Planner

Search our weather history database for the weather conditions in past years. The results will help you decide how hot, cold, wet, or windy it might be!

Date:

Astronomy

Jun. 27, 2013 Rise Set
Actual Time 5:57 AM CDT 8:50 PM CDT
Civil Twilight 5:25 AM CDT 9:22 PM CDT
Nautical Twilight 4:44 AM CDT 10:03 PM CDT
Astronomical Twilight 3:58 AM CDT 10:49 PM CDT
Moon 11:51 PM CDT (6/27) 10:56 AM CDT (6/27)
Length of Visible Light 15h 57m
Length of Day
14h 53m
Waning Gibbous, 76% of the Moon is Illuminated
Jun 27
Waning Gibbous
Jun 29
Last Quarter
Jul 8
New
Jul 15
First Quarter
Jul 22
Full

Hourly Weather History & Observations

Time (CDT) Temp. Heat Index Dew Point Humidity Pressure Visibility Wind Dir Wind Speed Gust Speed Precip Events Conditions
12:52 AM 70.0 °F - 66.9 °F 90% 29.87 in 10.0 mi Calm Calm - N/A   Clear
1:52 AM 69.1 °F - 64.9 °F 87% 29.87 in 10.0 mi ENE 3.5 mph - N/A   Clear
2:52 AM 68.0 °F - 64.9 °F 90% 29.88 in 10.0 mi Calm Calm - N/A   Clear
3:52 AM 68.0 °F - 64.9 °F 90% 29.89 in 10.0 mi NW 4.6 mph - N/A   Clear
4:52 AM 70.0 °F - 66.0 °F 87% 29.89 in 10.0 mi Calm Calm - N/A   Clear
5:52 AM 70.0 °F - 66.0 °F 87% 29.91 in 10.0 mi Calm Calm - N/A   Clear
6:52 AM 72.0 °F - 68.0 °F 87% 29.90 in 10.0 mi Calm Calm - N/A   Clear
7:52 AM 77.0 °F - 70.0 °F 79% 29.91 in 10.0 mi Calm Calm - N/A   Clear
8:52 AM 82.9 °F 87.5 °F 71.1 °F 67% 29.93 in 10.0 mi Calm Calm - N/A   Clear
9:52 AM 87.1 °F 96.3 °F 75.0 °F 67% 29.93 in 10.0 mi WSW 3.5 mph - N/A   Clear
10:52 AM 84.0 °F 93.7 °F 77.0 °F 79% 29.96 in 8.0 mi North 6.9 mph - N/A   Clear
11:52 AM 78.1 °F - 66.0 °F 66% 30.00 in 10.0 mi NNE 10.4 mph - N/A   Clear
12:52 PM 77.0 °F - 66.9 °F 71% 29.97 in 10.0 mi East 6.9 mph - N/A   Clear
1:52 PM 79.0 °F - 68.0 °F 69% 29.95 in 10.0 mi SSE 8.1 mph - N/A   Clear
2:52 PM 84.0 °F 87.8 °F 69.1 °F 61% 29.92 in 10.0 mi ESE 5.8 mph - N/A   Clear
3:52 PM 84.0 °F 88.4 °F 70.0 °F 63% 29.93 in 10.0 mi Calm Calm - N/A   Clear
4:52 PM 84.0 °F 88.4 °F 70.0 °F 63% 29.84 in 10.0 mi SE 8.1 mph - N/A   Clear
5:52 PM 82.9 °F 87.5 °F 71.1 °F 67% 29.84 in 10.0 mi East 8.1 mph - N/A   Clear
6:52 PM 84.0 °F 89.0 °F 71.1 °F 65% 29.83 in 10.0 mi Calm Calm - N/A   Clear
7:52 PM 81.0 °F 84.9 °F 71.1 °F 72% 29.86 in 10.0 mi NNE 4.6 mph - N/A   Partly Cloudy
8:52 PM 78.1 °F - 69.1 °F 74% 29.85 in 10.0 mi ENE 8.1 mph - N/A   Scattered Clouds
9:35 PM 75.2 °F - 66.2 °F 73% 29.95 in 10.0 mi WNW 11.5 mph - N/A   Partly Cloudy
9:52 PM 77.0 °F - 66.9 °F 71% 29.93 in 10.0 mi WNW 11.5 mph 31.1 mph N/A Thunderstorm Thunderstorm
9:57 PM 75.2 °F - 66.2 °F 73% 29.90 in 1.8 mi ESE 11.5 mph 31.1 mph 0.15 in Rain Light Rain
10:03 PM 73.4 °F - 66.2 °F 78% 29.90 in 1.0 mi ENE 11.5 mph 24.2 mph 0.23 in Rain , Thunderstorm Heavy Thunderstorms and Rain
10:07 PM 73.4 °F - 66.2 °F 78% 29.92 in 2.5 mi ENE 16.1 mph 24.2 mph 0.23 in Rain , Thunderstorm Light Thunderstorms and Rain
10:14 PM 73.4 °F - 66.2 °F 78% 29.92 in 10.0 mi ENE 10.4 mph 19.6 mph 0.23 in Rain , Thunderstorm Light Rain
10:52 PM 73.0 °F - 68.0 °F 84% 29.94 in 10.0 mi WNW 3.5 mph - 0.27 in Thunderstorm Mostly Cloudy
11:25 PM 73.4 °F - 69.8 °F 88% 29.98 in 8.0 mi SSE 4.6 mph - 0.05 in Rain Light Rain
11:39 PM 73.4 °F - 69.8 °F 88% 29.94 in 10.0 mi NW 4.6 mph - 0.05 in Rain , Thunderstorm Light Rain
11:52 PM 72.0 °F - 69.1 °F 91% 29.92 in 10.0 mi Calm Calm - 0.05 in   Overcast